Location: Eymir
(36.7333°N, 29.7833°E)
Time: 17:33:58
(UTC+00:00)

Timation 1 Rocket - Pass Details

Date: 14 January 2026
Orbit: 895 x 908 km, 70.0° (Epoch: 17 February)

Event Time Altitude Azimuth Distance (km) Brightness Sun altitude
Exits shadow 04:04:33 - 338° (NNW) 3,265 6.9 -13.6°
Reaches altitude 10° 04:06:21 10° 339° (NNW) 2,591 6.4 -13.2°
Maximum altitude 04:12:21 79° 66° (ENE) 926 4.5 -12.1°
Drops below altitude 10° 04:18:20 10° 154° (SSE) 2,582 7.4 -10.9°
Sets 04:20:50 0° 155° (SSE) 3,520 8.1 -10.5°
